Air Resources Laboratory banner image
Air Resources Laboratory web site National Oceanic and Atmospheric Administration (NOAA)

de roundup


Office: PHI

ASUS41 KPHI 181313
RWRPHI

REGIONAL WEATHER ROUNDUP
NATIONAL WEATHER SERVICE MOUNT HOLLY NJ
900 AM EDT THU OCT 18 2018

NOTE:  "FAIR" INDICATES FEW OR NO CLOUDS BELOW 12,000 FEET WITH NO
SIGNIFICANT WEATHER AND/OR OBSTRUCTIONS TO VISIBILITY.

 * = STATION DOES NOT REPORT PRECIPITATION (E.G. RAIN, SNOW, ETC.)
        OR FOG.

NJZ015>026-181400-
SOUTHERN NEW JERSEY

CITY           SKY/WX    TMP DP  RH WIND       PRES   REMARKS
POMONA         FAIR      48  32  53 NW10      30.38R
WILDWOOD*      FAIR      49  30  48 N13G21    30.40R
MILLVILLE      FAIR      47  31  53 NW9       30.39R
WRIGHTSTOWN    CLOUDY    44  29  56 NW9       30.34R
MOUNT HOLLY    PTSUNNY   45  30  55 VRB7      30.38R
TRENTON        CLOUDY    44  30  57 NW7       30.36R

$$
NJZ001>014-181400-
NORTHERN NEW JERSEY

CITY           SKY/WX    TMP DP  RH WIND       PRES   REMARKS
SUSSEX         FAIR      40  25  55 VRB7      30.33R
ANDOVER*         N/A     40  22  48 N8        30.33R WCI  34
MORRISTOWN     MOSUNNY   43  25  49 N13G18    30.36R
NEWARK         FAIR      44  22  41 NW17G26   30.35R
TETERBORO      FAIR      43  26  51 NW15G21   30.34R
CALDWELL       FAIR      41  23  48 N8        30.36R
SOMERVILLE     FAIR      43  24  47 N8        30.34R
ALLAIRE*       FAIR      44  28  53 NW14      30.36R
TOMS RIVER*    CLOUDY    42  31  64 NW7       30.37R

$$
PAZ043-044-047-054-055-060>062-066>071-181400-
EASTERN PENNSYLVANIA

CITY           SKY/WX    TMP DP  RH WIND       PRES   REMARKS
PHILADELPHIA   FAIR      44  29  55 W8        30.39R
NORTH PHILA    PTSUNNY   46  30  53 NW9       30.38R
BLUE BELL*     PTSUNNY   43  32  65 NW3       30.38R
DOYLESTOWN     PTSUNNY   43  28  55 N7        30.35R
QUAKERTOWN*    PTSUNNY   43  28  56 N8        30.35R
PERKASIE*      CLOUDY    41  28  60 N8        30.36R
POTTSTOWN      CLOUDY    43  28  55 NW9       30.39R
LANCASTER      CLOUDY    45  31  58 NW10      30.38R
COATESVILLE    PTSUNNY   43  30  61 N10       30.39R
READING        FAIR      45  27  49 NW17G23   30.36R
ALLENTOWN      CLOUDY    44  27  51 NW12      30.36R
MOUNT POCONO   FAIR      33  22  63 NW17G28   30.25F WCI  22
HAZLETON       CLOUDY    41  27  56 NW13G21   30.34R
LEHIGHTON      CLOUDY    41  27  56 NW6       30.36R
WILKES BARRE   FAIR      38  21  50 NW12      30.35R WCI  30

$$
DEZALL-MDZ008-012-015-019-020-181400-
DELAWARE AND EASTERN MARYLAND

CITY           SKY/WX    TMP DP  RH WIND       PRES   REMARKS
WILMINGTON     PTSUNNY   46  31  55 NW8       30.40R
DOVER          FAIR      48  31  53 NW13G20   30.40R
GEORGETOWN     FAIR      49  32  52 VRB6      30.41R
EASTON         PTSUNNY   50  28  43 NW14      30.44R
ABERDEEN       PTSUNNY   46  35  65 W5        30.41R
PATUXENT       FAIR      54  29  38 N15       30.42
OCEAN CITY     FAIR      49  33  54 N9        30.41R
WALLOPS ISLAND FAIR      51  32  48 N10       30.41R
CAMBRIDGE      SUNNY     52  27  37 NW15G21   30.41R
SALISBURY      FAIR      50  32  50 N12       30.40R

$$
PAZ001-021-NYZ056-072-MDZ011-DCZ001-181400-
OTHER NEARBY LOCATIONS

CITY           SKY/WX    TMP DP  RH WIND       PRES   REMARKS
HARRISBURG     FAIR      44  26  49 NW13G28   30.39R
STATE COLLEGE  PTSUNNY   37  25  60 NW9       30.40R WCI  31
WILLIAMSPORT   CLOUDY    40  25  55 NW10      30.39R WCI  33
BINGHAMTON     FAIR      31  22  69 NW13G22   30.32R WCI  21
NEW YORK CITY  FAIR      42  24  49 MISG      30.36R
BALTIMORE      FAIR      48  31  51 W8        30.41R
WASHINGTON DC  FAIR      51  29  42 NW9       30.45R

$$